User: anonymous   Login
Location: Unspecified
(0.0000°N, 0.0000°E)
Time: 15:54:16
(UTC+00:00)
Language:

Quakesat - Orbit

View from above orbital plane
View from above orbital plane
View from above satellite
View from above satellite

Ground track
Ground track

The orbit data is extracted from the following two-line orbital elements,

1 27845U 03031F   18348.50960306  .00000065  00000-0  49242-4 0  9992
2 27845  98.6875 355.7874 0008193 228.3065 131.7412 14.22161465801670
Epoch (UTC): 14 December 2018 12:13:49
Eccentricity: 0.0008193
inclination: 98.6875°
perigee height: 812 km
apogee height: 824 km
right ascension of ascending node: 355.7874°
argument of perigee: 228.3065°
revolutions per day: 14.22161465
mean anomaly at epoch: 131.7412°
orbit number at epoch: 80167

The dashed part of the orbit path shows where the satellite is in the earth's shadow,  

DLR